EHI
0 0 0 0 0 0 0 0 0 0 0 0 0 0 0 0 0 0 0 0 0 0 0 0 0 0 0 0 0 0 0 0 0 0 0 0 0 0
0 0 0 0 0 0 0 0 0 0 0 0 0 0 0 0 0 0 0 0 0 0 0 0 0 0 0 0 0 0 0 0 0 0 0 0 0 0
0 0 0 0 0 0 0 0 0 0 0 0 0 0 0 0 0 0 0 0 0 0 0 0 0 0 0 0 0 0 0 0 0 0 0 0 0 0
0 0 0 0 0 0 0 0 0 0 0 0 0 0 0 0 0 0 0 0 0 0 0 0 0 0 0 0 0 0 0 0 0 0 0 0 0 0
0 0 0 0 0 0 0 0 0 0 0 0 0 0 0 0 0 0 0 0 0 0 0 0 0 0 0 0 0 0 0 0 0 0 0 0 0 0
0 0 0 0 0 0 0 0 0 0 0 0 0 0 0 0 0 0 0 0 0 0 0 0 0 0 0 0 0 0 0 0 0 0 0 0 0 0
0 0 0 0 0 0 0 0 0 0 0 0 0 0 0 0 0 0 0 0 0 0 0 0 0 0 0 0 0 0 0 0 0 0 0 0 0 0
0 0 0 0 0 0 0 0 0 0 0 0 0 0 0 0 0 0 0 0 0 0 0 0 0 0 0 0 0 0 0 0 0 0 0 0 0 0
0 0 0 0 0 0 0 0 0 0 0 0 0 0 0 0 0 0 0 0 0 0 0 0 0 0 0 0 0 0 0 0 0 0 0 0 0 0
0 0 0 0 0 0 0 0 0 0 0 0 0 0 0 0 0 0 0 0 0 0 0 0 0 0 0 0 0 0 0 0 0 0 0 0 0 0
0 0 0 0 0 0 0 0 0 0 0 0 0 0 0 0 0 0 0 0 0 0 0 0 0 0 0 0 0 0 0 0 0 0 0 0 0 0
0 0 0 0 0 0 0 0 0 0 0 0 0 0 0 0 0 0 0 0 0 0 0 0 0 0 0 0 0 0 0 0 0 0 0 0 0 0
0 0 0 0 0 0 0 0 0 0 0 0 0 0 0 0 0 0 0 0 0 0 0 0 0 0 0 0 0 0 0 0 0 0 0 0 0 0
0 0 0 0 0 0 0 0 0 0 0 0 0 0 0 0 0 0 0 0 0 0 0 0 0 0 0 0 0 0 0 0 0 0 0 0 0 0
0 0 0 0 0 0 0 0 0 0 0 0 0 0 0 0 0 0 0 0 0 0 0 0 0 0 0 0 0 0 0 0 0 0 0 0 0 0
0 0 0 0 0 0 0 0 0 0 0 0 0 0 0 0 0 0 0 0 0 0 0 0 0 0 0 0 0 0 0 0 0 0 0 0 0 0
0 0 0 0 0 0 0 0 0 0 0 0 0 0 0 0 0 0 0 0 0 0 0 0 0 0 0 0 0 0 0 0 0 0 0 0 0 0
0 0 0 0 0 0 0 0 0 0 0 0 0 0 0 0 0 0 0 0 0 0 0 0 0 0 0 0 0 0 0 0 0 0 0 0 0 0
0 0 0 0 0 0 0 0 0 0 0 0 0 0 0 0 0 0 0 0 0 0 0 0 0 0 0 0 0 0 0 0 0 0 0 0 0 0
0 0 0 0 0 0 0 0 0 0 0 0 0 0 0 0 0 0 0 0 0 0 0 0 0 0 0 0 0 0 0 0 0 0 0 0 0 0
0 0 0 0 0 0 0 0 0 0 0 0 0 0 0 0 0 0 0 0 0 0 0 0 0 0 0 0 0 0 0 0 0 0 0 0 0 0
0 0 0 0 0 0 0 0 0 0 0 0 0 0 0 0 0 0 0 0 0 0 0 0 0 0 0 0 0 0 0 0 0 0 0 0 0 0
0 0 0 0 0 0 0 0 0 0 0 0 0 0 0 0 0 0 0 0 0 0 0 0 0 0 0 0 0 0 0 0 0 0 0 0 0 0
Wind_Speed
5 5 4 4 4 4 4 3 3 4 3 3 2 2 2 3 5 7 8 12 16 16 16 17 17 18 19 19 19 18 17 17 16 16 16 17 17 17
4 5 5 4 4 4 4 4 4 4 4 3 2 3 4 3 3 4 6 9 13 15 15 15 16 17 18 18 18 17 16 16 15 15 15 14 14 14
6 6 6 6 4 4 4 4 4 4 5 4 3 3 4 3 2 1 1 3 5 11 13 13 14 15 16 16 16 16 16 15 15 14 14 14 13 13
7 7 7 6 6 5 4 5 5 5 5 5 3 3 3 2 1 1 1 1 2 6 10 11 11 13 14 14 15 15 15 14 13 13 13 13 13 12
8 8 8 7 7 6 6 6 5 5 5 4 4 2 2 1 0 1 2 2 3 4 6 7 9 10 11 12 13 13 13 13 13 13 12 12 11 11
8 8 9 8 9 8 6 7 6 6 5 5 4 3 3 2 2 2 2 2 2 3 5 5 7 8 9 11 12 12 12 12 12 11 11 10 10 9
8 8 9 11 12 10 7 7 7 6 5 5 4 3 3 3 3 2 3 3 2 2 4 3 4 4 4 7 9 11 11 11 11 10 10 10 9 9
10 9 9 11 13 14 15 14 11 9 8 6 5 5 4 4 3 3 4 4 3 3 4 3 3 4 3 3 7 10 11 11 11 11 11 11 10 10
10 9 9 9 11 9 11 13 13 16 14 9 7 7 5 5 4 6 5 5 3 6 5 3 3 3 3 4 9 10 11 11 12 12 12 12 12 11
11 11 11 10 10 10 10 9 9 9 12 11 9 8 7 5 4 4 5 4 4 4 4 4 3 3 3 4 7 10 11 11 12 13 13 13 13 12
10 10 11 11 12 13 11 10 10 9 10 12 11 10 9 8 5 4 6 6 5 4 2 5 4 3 3 3 5 9 11 12 12 13 14 15 15 13
8 9 12 13 13 13 11 10 11 9 8 7 9 9 9 9 10 7 6 6 5 4 4 5 5 5 4 2 2 4 7 10 12 13 14 14 13 8
6 6 7 11 13 14 12 10 11 9 8 7 7 7 6 6 7 7 7 6 6 4 7 6 6 4 5 4 2 2 3 4 5 7 10 11 9 8
7 6 6 9 10 11 10 11 13 10 6 6 6 6 6 7 6 7 8 7 4 5 9 8 6 7 7 6 5 3 3 4 5 6 6 8 8 8
6 8 9 10 9 7 11 12 10 7 7 7 7 7 7 6 6 6 7 6 5 6 9 6 7 8 6 7 7 6 5 4 5 6 6 6 5 5
4 6 7 7 5 5 5 7 7 7 8 7 7 6 5 5 6 6 6 7 6 4 5 5 8 10 6 6 8 7 7 8 7 7 6 5 4 4
4 3 3 2 2 3 3 4 5 6 7 6 6 6 6 5 5 5 6 7 6 7 6 5 5 4 5 7 7 8 9 7 8 9 7 6 5 5
4 3 3 3 3 3 4 4 4 5 6 6 6 6 6 6 5 5 6 7 7 7 7 7 7 5 4 3 3 9 8 7 8 9 7 6 6 5
4 4 4 4 4 4 4 4 4 5 5 5 5 5 5 6 5 5 6 7 7 8 8 9 9 8 8 6 4 5 9 9 10 9 7 6 6 7
5 5 5 5 4 4 4 4 4 4 4 5 5 5 5 6 5 6 6 8 8 8 8 9 9 9 8 8 7 5 9 11 10 10 8 5 4 6
5 5 5 5 5 5 4 4 5 5 6 5 5 6 6 6 5 5 6 8 8 8 10 10 8 8 7 8 7 5 7 8 7 8 11 8 6 6
5 5 5 5 5 5 5 5 5 5 6 6 6 6 6 6 6 7 7 7 7 7 8 8 10 8 5 7 8 8 8 8 6 8 8 6 7 10
5 5 5 5 5 4 5 5 7 6 6 6 6 6 6 6 6 6 7 7 8 9 9 9 9 7 5 6 8 8 12 11 8 8 7 1 2 4
Wind_Direction
257 252 247 250 245 244 244 243 267 296 301 299 308 349 319 265 239 220 218 215 209 204 202 200 198 197 198 198 199 199 201 203 205 207 210 211 212 215
258 257 253 252 249 243 240 240 235 252 276 300 314 324 325 310 264 232 218 206 203 198 198 198 197 195 194 193 194 195 198 199 201 203 204 206 208 211
262 258 259 256 251 247 238 237 237 235 260 280 280 307 312 317 328 302 207 185 189 191 191 191 191 192 191 191 191 192 194 195 197 198 200 201 204 207
257 256 260 261 251 248 238 237 237 233 245 273 289 295 299 314 315 88 73 103 144 172 180 182 185 187 187 186 188 189 190 192 194 196 197 197 199 204
250 249 253 254 254 249 242 240 238 237 230 247 271 281 277 270 122 100 100 90 91 124 143 158 171 177 179 180 183 185 186 188 191 194 196 195 197 200
250 246 247 245 246 247 244 240 238 236 231 235 250 261 262 241 188 168 144 120 103 102 102 108 132 145 160 168 173 175 177 179 181 184 186 186 187 188
257 248 245 245 244 243 239 235 230 229 226 226 233 238 243 228 197 174 162 137 107 125 118 105 114 118 133 149 159 163 166 170 172 174 174 173 171 170
264 257 250 254 256 253 248 240 224 221 221 218 222 226 232 231 202 179 161 161 161 156 128 100 96 103 95 120 141 148 153 155 158 159 157 153 150 148
262 259 257 253 245 242 248 251 242 229 219 213 216 219 222 219 207 191 187 177 162 157 133 107 88 90 67 94 125 135 141 144 145 144 142 138 135 135
259 255 253 253 246 238 242 246 247 240 228 223 221 221 219 214 213 207 183 147 110 134 124 117 109 92 69 71 104 124 130 133 134 134 131 128 126 124
263 258 251 250 243 233 235 240 244 245 239 226 220 221 215 208 201 186 179 171 159 148 118 122 126 105 78 62 76 104 118 123 125 126 126 125 123 117
269 263 254 249 243 231 231 230 234 237 231 222 219 221 218 214 205 201 191 186 164 154 160 131 135 137 120 78 67 91 101 105 113 120 126 128 130 124
269 268 260 250 245 237 227 226 227 225 222 218 216 213 209 207 207 208 201 196 183 160 162 145 142 142 130 128 108 87 108 120 110 113 121 125 131 134
263 266 265 261 254 243 229 228 224 218 218 211 211 209 206 206 206 204 204 200 192 168 165 157 148 155 141 139 143 130 107 119 124 126 126 119 105 97
260 263 269 268 260 250 234 225 215 210 208 207 210 209 207 205 198 198 199 187 162 155 164 166 151 153 147 142 145 147 143 145 143 140 143 147 147 144
280 279 277 272 254 243 232 217 211 207 204 207 206 204 194 192 197 192 191 179 163 149 150 150 154 153 143 140 147 155 155 154 158 155 146 146 153 161
292 280 267 261 253 242 227 211 204 201 205 206 203 196 189 191 196 195 189 181 174 164 153 133 113 100 113 141 149 156 151 148 157 155 155 155 167 174
264 259 263 258 253 243 231 217 206 203 200 198 200 195 190 191 193 193 192 188 178 169 161 151 139 120 100 52 117 155 154 150 154 159 157 159 170 178
240 251 252 250 249 243 232 222 215 206 196 194 193 192 192 194 191 193 195 188 181 170 164 162 163 158 162 164 162 170 159 151 153 163 170 168 172 171
235 246 249 248 242 236 230 224 219 205 201 201 194 191 192 192 192 195 197 192 179 167 165 171 178 179 179 164 151 165 168 157 159 164 164 149 117 121
249 247 247 246 243 235 227 223 219 209 204 200 199 196 193 192 195 198 197 186 177 172 176 178 174 145 112 113 118 134 163 168 157 159 157 153 150 159
256 250 246 242 240 235 224 219 215 213 206 203 201 199 195 194 197 199 194 187 181 175 171 157 151 151 148 155 152 145 147 154 144 142 158 153 165 178
256 251 245 240 235 229 223 219 216 210 205 203 201 197 194 195 198 198 194 186 176 168 159 157 159 162 158 150 144 143 149 152 152 154 165 171 137 137